Weather History for Inverness, FL

Change the Weather History Date:

Tuesday, December 24, 2013

  Actual Average (KOCF) Record (KOCF)
Temperature  
Mean Temperature 58 °F -  
Max Temperature 69 °F 65 °F 80 °F (1998)
Min Temperature 46 °F 42 °F 26 °F (2010)
Degree Days  
Heating Degree Days 8    
Growing Degree Days 8 (Base 50)    
Moisture  
Dew Point 45 °F    
Average Humidity 65    
Maximum Humidity 100    
Minimum Humidity 28    
Precipitation  
Precipitation 0.00 in - - ()
Sea Level Pressure  
Sea Level Pressure 30.24 in    
Wind  
Wind Speed 6 mph (North)    
Max Wind Speed 14 mph    
Max Gust Speed 21 mph    
Visibility 10 miles    
Events      
Averages and records for this station are not official NWS values.
T = Trace of Precipitation, MM = Missing Value Source: NWS Daily Summary

Daily Weather History Graph

Daily Weather History Graph

Search for Another Location

Airport:

Trip Planner

Search our weather history database for the weather conditions in past years. The results will help you decide how hot, cold, wet, or windy it might be!

Date:

Astronomy

Dec. 24, 2013 Rise Set
Actual Time 7:19 AM EST 5:38 PM EST
Civil Twilight 6:53 AM EST 6:04 PM EST
Nautical Twilight 6:24 AM EST 6:33 PM EST
Astronomical Twilight 5:55 AM EST 7:02 PM EST
Moon No Moon Rise 11:43 AM EST (12/24)
Length of Visible Light 11h 10m
Length of Day
10h 18m
Waning Gibbous, 59% of the Moon is Illuminated
Dec 24
Waning Gibbous
Dec 25
Last Quarter
Jan 1
New
Jan 7
First Quarter
Jan 15
Full

Hourly Weather History & Observations

Time (EST) Temp. Windchill Dew Point Humidity Pressure Visibility Wind Dir Wind Speed Gust Speed Precip Events Conditions
12:15 AM 69.8 °F - 68.0 °F 94% 30.14 in 10.0 mi WNW 3.5 mph - N/A   Overcast
12:35 AM 69.8 °F - 68.0 °F 94% 30.14 in 10.0 mi Calm Calm - N/A   Overcast
12:55 AM 69.8 °F - 66.2 °F 88% 30.14 in 10.0 mi Calm Calm - N/A   Overcast
1:15 AM 69.8 °F - 64.4 °F 83% 30.13 in 10.0 mi Calm Calm - N/A   Overcast
1:35 AM 69.8 °F - 64.4 °F 83% 30.14 in 10.0 mi Calm Calm - N/A   Overcast
1:55 AM 69.8 °F - 64.4 °F 83% 30.13 in 10.0 mi Calm Calm - N/A   Overcast
2:15 AM 69.8 °F - 64.4 °F 83% 30.14 in 10.0 mi Calm Calm - N/A   Overcast
2:35 AM 69.8 °F - 64.4 °F 83% 30.14 in 10.0 mi Calm Calm - N/A   Overcast
2:55 AM 68.0 °F - 64.4 °F 88% 30.14 in 10.0 mi Calm Calm - N/A   Overcast
3:15 AM 64.4 °F - 62.6 °F 94% 30.15 in 10.0 mi North 8.1 mph - N/A   Overcast
3:35 AM 60.8 °F - 59.0 °F 94% 30.16 in 7.0 mi North 13.8 mph 18.4 mph N/A   Overcast
3:55 AM 59.0 °F - 59.0 °F 100% 30.17 in 4.0 mi North 10.4 mph 16.1 mph N/A   Overcast
4:15 AM 59.0 °F - 57.2 °F 94% 30.19 in 4.0 mi North 10.4 mph 16.1 mph N/A   Drizzle
4:35 AM 59.0 °F - 57.2 °F 94% 30.19 in 3.0 mi North 6.9 mph - N/A   Drizzle
4:55 AM 59.0 °F - 57.2 °F 94% 30.19 in 4.0 mi NNW 5.8 mph - N/A   Drizzle
5:15 AM 59.0 °F - 57.2 °F 94% 30.20 in 10.0 mi Calm Calm - N/A   Overcast
5:35 AM 59.0 °F - 57.2 °F 94% 30.20 in 10.0 mi Calm Calm - N/A   Overcast
5:55 AM 59.0 °F - 57.2 °F 94% 30.20 in 7.0 mi North 5.8 mph - N/A   Overcast
6:15 AM 59.0 °F - 55.4 °F 88% 30.21 in 10.0 mi NNW 3.5 mph - N/A   Overcast
6:35 AM 59.0 °F - 55.4 °F 88% 30.22 in 10.0 mi Calm Calm - N/A   Overcast
6:55 AM 59.0 °F - 55.4 °F 88% 30.23 in 10.0 mi North 4.6 mph - N/A   Overcast
7:15 AM 59.0 °F - 55.4 °F 88% 30.24 in 10.0 mi NNW 3.5 mph - N/A   Overcast
7:35 AM 59.0 °F - 55.4 °F 88% 30.24 in 10.0 mi North 6.9 mph - N/A   Overcast
7:55 AM 57.2 °F - 55.4 °F 94% 30.26 in 10.0 mi North 8.1 mph 16.1 mph N/A   Overcast
8:15 AM 57.2 °F - 53.6 °F 88% 30.27 in 10.0 mi NNW 11.5 mph 17.3 mph N/A   Overcast
8:35 AM 55.4 °F - 53.6 °F 94% 30.27 in 10.0 mi North 8.1 mph - N/A   Overcast
8:55 AM 55.4 °F - 51.8 °F 88% 30.27 in 10.0 mi North 8.1 mph - N/A   Overcast
9:15 AM 55.4 °F - 51.8 °F 88% 30.28 in 10.0 mi North 11.5 mph - N/A   Overcast
9:35 AM 55.4 °F - 51.8 °F 88% 30.29 in 10.0 mi North 9.2 mph - N/A   Overcast
9:55 AM 55.4 °F - 50.0 °F 82% 30.29 in 10.0 mi NNW 6.9 mph - N/A   Overcast
10:15 AM 57.2 °F - 50.0 °F 77% 30.29 in 10.0 mi North 12.7 mph 17.3 mph N/A   Mostly Cloudy
10:35 AM 59.0 °F - 50.0 °F 72% 30.30 in 10.0 mi North 11.5 mph - N/A   Scattered Clouds
10:55 AM 59.0 °F - 48.2 °F 67% 30.30 in 10.0 mi North 8.1 mph - N/A   Clear
11:15 AM 60.8 °F - 48.2 °F 63% 30.29 in 10.0 mi NNW 8.1 mph - N/A   Clear
11:35 AM 60.8 °F - 46.4 °F 59% 30.29 in 10.0 mi North 9.2 mph - N/A   Clear
11:55 AM 60.8 °F - 44.6 °F 55% 30.28 in 10.0 mi North 8.1 mph - N/A   Clear
12:15 PM 60.8 °F - 42.8 °F 52% 30.28 in 10.0 mi NNW 10.4 mph 17.3 mph N/A   Clear
12:35 PM 62.6 °F - 42.8 °F 48% 30.26 in 10.0 mi NNW 8.1 mph 16.1 mph N/A   Clear
12:55 PM 62.6 °F - 41.0 °F 45% 30.26 in 10.0 mi North 13.8 mph 18.4 mph N/A   Clear
1:15 PM 64.4 °F - 33.8 °F 32% 30.25 in 10.0 mi NNE 13.8 mph 19.6 mph N/A   Clear
1:35 PM 64.4 °F - 33.8 °F 32% 30.24 in 10.0 mi North 12.7 mph 18.4 mph N/A   Clear
1:55 PM 64.4 °F - 32.0 °F 30% 30.24 in 10.0 mi North 12.7 mph 20.7 mph N/A   Clear
2:15 PM 64.4 °F - 30.2 °F 28% 30.24 in 10.0 mi North 13.8 mph 19.6 mph N/A   Clear
2:35 PM 64.4 °F - 30.2 °F 28% 30.24 in 10.0 mi North 11.5 mph 19.6 mph N/A   Clear
2:55 PM 64.4 °F - 30.2 °F 28% 30.24 in 10.0 mi NNE 13.8 mph 19.6 mph N/A   Clear
3:15 PM 64.4 °F - 30.2 °F 28% 30.24 in 10.0 mi North 12.7 mph 18.4 mph N/A   Clear
3:35 PM 64.4 °F - 32.0 °F 30% 30.24 in 10.0 mi North 13.8 mph 18.4 mph N/A   Clear
3:55 PM 64.4 °F - 32.0 °F 30% 30.24 in 10.0 mi NNE 11.5 mph - N/A   Clear
4:15 PM 62.6 °F - 30.2 °F 30% 30.24 in 10.0 mi NNE 11.5 mph 17.3 mph N/A   Clear
4:35 PM 62.6 °F - 32.0 °F 32% 30.25 in 10.0 mi North 8.1 mph - N/A   Clear
4:55 PM 60.8 °F - 30.2 °F 31% 30.25 in 10.0 mi North 9.2 mph - N/A   Clear
5:15 PM 59.0 °F - 32.0 °F 36% 30.26 in 10.0 mi North 6.9 mph - N/A   Clear
5:35 PM 55.4 °F - 32.0 °F 41% 30.26 in 10.0 mi North 5.8 mph - N/A   Clear
5:55 PM 55.4 °F - 33.8 °F 44% 30.26 in 10.0 mi North 3.5 mph - N/A   Clear
6:15 PM 53.6 °F - 33.8 °F 47% 30.27 in 10.0 mi North 3.5 mph - N/A   Clear
6:35 PM 53.6 °F - 33.8 °F 47% 30.27 in 10.0 mi North 4.6 mph - N/A   Clear
6:55 PM 53.6 °F - 33.8 °F 47% 30.28 in 10.0 mi Calm Calm - N/A   Clear
7:15 PM 51.8 °F - 35.6 °F 54% 30.29 in 10.0 mi North 4.6 mph - N/A   Clear
7:35 PM 51.8 °F - 35.6 °F 54% 30.29 in 10.0 mi North 5.8 mph - N/A   Clear
7:55 PM 51.8 °F - 35.6 °F 54% 30.29 in 10.0 mi North 6.9 mph - N/A   Clear
8:15 PM 51.8 °F - 35.6 °F 54% 30.30 in 10.0 mi North 8.1 mph - N/A   Clear
8:35 PM 51.8 °F - 35.6 °F 54% 30.30 in 10.0 mi North 6.9 mph - N/A   Clear
8:55 PM 51.8 °F - 33.8 °F 50% 30.30 in 10.0 mi North 6.9 mph - N/A   Clear
9:15 PM 51.8 °F - 33.8 °F 50% 30.31 in 10.0 mi NNE 6.9 mph - N/A   Clear
9:35 PM 50.0 °F - 33.8 °F 54% 30.31 in 10.0 mi North 8.1 mph - N/A   Clear
9:55 PM 50.0 °F - 33.8 °F 54% 30.31 in 10.0 mi North 6.9 mph - N/A   Clear
10:15 PM 50.0 °F - 33.8 °F 54% 30.31 in 10.0 mi North 6.9 mph - N/A   Clear
10:35 PM 50.0 °F - 33.8 °F 54% 30.31 in 10.0 mi North 5.8 mph - N/A   Clear
10:55 PM 48.2 °F - 33.8 °F 58% 30.31 in 10.0 mi North 6.9 mph - N/A   Clear
11:15 PM 48.2 °F - 33.8 °F 58% 30.31 in 10.0 mi North 6.9 mph - N/A   Clear
11:35 PM 46.4 °F 42.9 °F 33.8 °F 62% 30.31 in 10.0 mi North 6.9 mph - N/A   Clear
11:55 PM 46.4 °F 42.9 °F 33.8 °F 62% 30.30 in 10.0 mi North 6.9 mph - N/A   Clear